Regional Weather Roundup
Issued by NWS

Home | Current Version | Previous Version | Text Only | Print | Product List | Glossary On
Versions: 1 2 3 4 5 6 7 8 9 10 11 12 13 14 15 16 17 18 19 20 21 22 23 24 25 26 27
000
ASUS45 KBOU 211710
RWRCO

WEATHER ROUNDUP FOR COLORADO
NATIONAL WEATHER SERVICE DENVER/BOULDER CO
1100 AM MDT MON JUN 21 2021

NOTE: "FAIR" INDICATES FEW OR NO CLOUDS BELOW 12000 FEET WITH NO
SIGNIFICANT WEATHER AND/OR OBSTRUCTIONS TO VISIBILITY.

COZ001>005-013-030-031-211800-
...NORTHWEST COLORADO...

CITY           SKY/WX    TMP DP  RH WIND       PRES   REMARKS
CRAIG          FAIR      69  43  38 W7        30.25F
HAYDEN         FAIR      65  43  44 SW5       30.27F
MEEKER         FAIR      66  43  43 S5        30.24F
RANGELY        FAIR      71  41  33 NE6       30.20F
RABBIT EARS PA FAIR      55  37  50 NW5       30.50R
STEAMBOAT SPGS FAIR      66  43  44 SW6       30.26S
WALDEN         FAIR      61  35  37 N3        30.34S
$$

COZ006>008-011-211800-
...WEST CENTRAL VALLEYS...

CITY           SKY/WX    TMP DP  RH WIND       PRES   REMARKS
GRAND JUNCTION FAIR      85  35  16 CALM      30.08F
MONTROSE       FAIR      77  41  27 N10       30.17F
EAGLE          FAIR      76  34  21 NE3       30.23F
RIFLE          FAIR      78  41  26 CALM      30.15F
DELTA          FAIR      81  36  19 CALM      30.12F
NUCLA          NOT AVBL
$$

COZ017>023-064>068-211800-
...SOUTHWEST COLORADO...

CITY           SKY/WX    TMP DP  RH WIND       PRES   REMARKS
DURANGO        FAIR      86  27  11 VRB7      30.16F
CORTEZ         FAIR      89  31  12 W5        30.12F
PAGOSA SPRINGS FAIR      80  28  15 S9        30.25F
TELLURIDE      FAIR      72  19  14 W12G21    30.41S
WOLF CREEK PAS FAIR      59  27  29 NW9G18    30.62S
$$

COZ009-010-012-014-032>034-037-058>063-211800-
...CENTRAL COLORADO...

CITY           SKY/WX    TMP DP  RH WIND       PRES   REMARKS
ASPEN          FAIR      72  34  24 N9        30.27F
BUENA VISTA    FAIR      65  42  42 SE12      30.30S
COPPER MTN     FAIR      55  21  26 W15G24    30.56R
BERTHOUD PASS  FAIR      45  32  61 NW21G30   30.55S
DAKOTA HILL    FAIR      50  36  57 NW8G18    30.47R
COTTONWOOD PAS FAIR      59  45  58 E8        30.41S
GUNNISON       FAIR      72  35  25 VRB3      30.26F
GRANBY         FAIR      66  36  32 W5        30.32F
KREMMLING      FAIR      68  43  40 SW5       30.29S
LEADVILLE      FAIR      63  23  21 NW12G23   30.39S
SALIDA         FAIR      62  47  58 SE20G25   30.37S
SUNLIGHT         N/A     55  28  35 W3        30.53R
WILKERSON PASS FOG       45  43  93 CALM      30.52S VSB 1
$$

COZ069>075-211800-
...SAN LUIS VALLEY/SANGRE DE CRISTO MOUNTAINS...

CITY           SKY/WX    TMP DP  RH WIND       PRES   REMARKS
ALAMOSA        FAIR      71  45  39 E6        30.24F
DEL NORTE      FAIR      69  47  44 E12       30.27F
LA VETA PASS   HVY SNOW  41  41 100 E7        30.45R VSB<1/4
SAGUACHE       FAIR      70  45  40 S10       30.27F
$$

COZ035-036-038>040-211800-
...NORTHERN COLORADO FRONT RANGE...

CITY           SKY/WX    TMP DP  RH WIND       PRES   REMARKS
DENVER INTL AP PTSUNNY   62  50  64 SE5       30.26S
AURORA         PTSUNNY   58  50  75 SE7       30.28R
WATKINS        NOT AVBL
ERIE           CLOUDY    64  47  54 E3        30.26S
BOULDER        CLOUDY    61  46  59 CALM      30.26S
CENTENNIAL     CLOUDY    58  47  66 E3        30.28S
BROOMFIELD     CLOUDY    61  48  63 SE5       30.28S
FORT COLLINS   FAIR      65  48  54 VRB6      30.26S
LONGMONT       CLOUDY    65  46  51 E5        30.27S
$$

COZ041-046-047-076>085-087-088-211800-
...PIKES PEAK/PALMER DIVIDE AND SOUTHERN FOOTHILLS...

CITY           SKY/WX    TMP DP  RH WIND       PRES   REMARKS
COLO. SPRINGS  CLOUDY    56  48  74 S9        30.32S
A. F. ACADEMY  CLOUDY    53  48  84 S14       30.30S
SCHRIEVER AFB  NOT AVBL
CHEYENNE MTN   CLOUDY    50  50 100 E7        30.31R
ELLICOTT       CLOUDY    56  46  69 S6        30.32F
FALCON         CLOUDY    54  44  69 S10       30.34S
FORT CARSON    CLOUDY    56  49  75 S9        30.29S
LIMON          CLOUDY    61  44  53 CALM      30.28R
MONUMENT HILL  CLOUDY    52  45  76 S8        30.34S
CANON CITY     CLOUDY    59  52  77 CALM      30.29S
WALSENBURG     NOT AVBL
TRINIDAD       CLOUDY    57  51  80 SE8       30.30S
$$

COZ042>045-048>051-090-091-211800-
...NORTHEAST COLORADO...

CITY           SKY/WX    TMP DP  RH WIND       PRES   REMARKS
GREELEY        PTSUNNY   68  47  46 CALM      30.26S
AKRON          PTSUNNY   63  50  62 NW6       30.24F
BURLINGTON     PTSUNNY   67  48  50 NE6       30.23F
WRAY           FAIR      68  48  49 N6        30.21S
YUMA           PTSUNNY   64  30  27 W8        30.22S
STERLING       PTSUNNY   66  50  55 NW9       30.21S
HOLYOKE        FAIR      72  50  46 NW10      30.21S
FORT MORGAN    CLOUDY    65  47  52 N6        30.25S
$$

COZ086-089-092>099-211800-
...SOUTHEAST COLORADO...

CITY           SKY/WX    TMP DP  RH WIND       PRES   REMARKS
PUEBLO         CLOUDY    62  49  62 CALM      30.26S
LA JUNTA       CLOUDY    63  52  67 E5        30.26S
LAMAR          CLOUDY    64  52  64 NE7       30.23S
SPRINGFIELD      N/A     64  49  57 NE7       30.24R
$$



USA.gov is the U.S. government's official web portal to all federal, state and local government web resources and services.